User: anonymous   Login
Location: Unspecified
(42.3650°N, 71.1030°W)
Time: 10:16:59
(UTC+00:00)
Language:

STARS - Orbit

View from above orbital plane
View from above orbital plane
View from above satellite
View from above satellite

Ground track
Ground track

The orbit data is extracted from the following two-line orbital elements,

1 33498U 09002G   24205.67413925  .00006955  00000-0  80279-3 0  9992
2 33498  98.1171 120.6305 0008198 292.5767  67.4580 14.85931541835093
Epoch (UTC): 23 July 2024 16:10:45
Eccentricity: 0.0008198
inclination: 98.1171°
perigee height: 605 km
apogee height: 616 km
right ascension of ascending node: 120.6305°
argument of perigee: 292.5767°
revolutions per day: 14.85931541
mean anomaly at epoch: 67.4580°
orbit number at epoch: 83509

The dashed part of the orbit path shows where the satellite is in the earth's shadow,  

DLR